Location: Namasale
(1.5000°N, 32.6167°E)
Time: 00:03:27
(UTC+00:00)

Transit 2A - Pass Details

Date: 19 April 2021
Orbit: 602 x 957 km, 66.7° (Epoch: 11 May)

Event Time Altitude Azimuth Distance (km) Brightness Sun altitude
Rises 04:48:25 0° 235° (SW) 3,365 8.8 14.9°
Reaches altitude 10° 04:52:24 10° 262° (W) 2,340 8.0 15.9°
Maximum altitude 04:54:43 13° 288° (WNW) 2,092 7.8 16.5°
Drops below altitude 10° 04:56:57 10° 314° (NW) 2,230 8.1 17.0°
Sets 05:00:35 0° 343° (NNW) 3,062 9.1 17.9°
